Regional Weather Roundup
Issued by NWS Little Rock, AR

Home | Current Version | Previous Version | Graphics & Text | Print | Product List | Glossary On
Versions: 1 2 3 4 5 6 7 8 9 10 11 12 13 14 15 16 17 18 19 20 21 22 23 24 25 26 27 28 29 30 31 32
000
ASUS44 KLZK 250405
RWRLZK

WEATHER ROUNDUP FOR ARKANSAS
NATIONAL WEATHER SERVICE LITTLE ROCK AR
1100 PM CDT THU MAY 24 2018

NOTE: "FAIR" INDICATES FEW OR NO CLOUDS BELOW 12,000 FEET WITH NO
SIGNIFICANT WEATHER AND/OR OBSTRUCTIONS TO VISIBILITY.

ARZ001-003-010-029-250500-
NORTHWEST ARKANSAS

CITY           SKY/WX    TMP DP  RH WIND       PRES   REMARKS
FAYETTEVILLE   MOCLDY    65  64  97 CALM      30.05S
FORT SMITH     PTCLDY    72  69  90 E3        30.02S
HARRISON       PTCLDY    67  67 100 SE3       30.07S
BENTONVILLE    PTCLDY    70  65  84 SE3       30.07S
ROGERS         PTCLDY    69  65  86 CALM      30.07S
SILOAM SPGS    MOCLDY    69  67  93 CALM      30.06R
HIGHFILL       MOCLDY    69  65  86 CALM      30.06S
$$

ARZ004-005-016-250500-
NORTH CENTRAL ARKANSAS

CITY           SKY/WX    TMP DP  RH WIND       PRES   REMARKS
BATESVILLE     PTCLDY    68  66  93 CALM      30.06R
FLIPPIN        CLOUDY    66  65  96 SE3       30.06S
MTN HOME       PTCLDY    65  65 100 S6        30.05F
$$

ARZ040-041-250500-
WEST CENTRAL ARKANSAS

CITY           SKY/WX    TMP DP  RH WIND       PRES   REMARKS
MENA           PTCLDY   N/A N/A N/A CALM      30.07R
MOUNT IDA      PTCLDY    72  72 100 CALM      30.03S
$$

ARZ009-017-025-026-028-250500-
NORTHEAST ARKANSAS

CITY           SKY/WX    TMP DP  RH WIND       PRES   REMARKS
CORNING        FAIR      75  75 100 CALM      30.04S
JONESBORO      FAIR      73  73 100 CALM      30.04R
NEWPORT        FAIR      74  72  93 CALM      30.05R
WALNUT RIDGE     N/A     75  72  90 W3        30.04R
BLYTHEVILLE    FAIR      76  71  85 SW3       30.04R
$$

ARZ022-023-033-042-044-250500-
CENTRAL ARKANSAS

CITY           SKY/WX    TMP DP  RH WIND       PRES   REMARKS
LITTLE ROCK    FAIR      77  72  84 CALM      30.03S
N LITTLE ROCK    N/A     74  72  93 CALM      30.00R
JACKSONVILLE   PTCLDY    76  73  90 CALM      30.03R
CONWAY         CLOUDY    75  72  88 CALM      30.03S
SEARCY         FAIR      72  72 100 CALM      30.05R
HOT SPRINGS    CLOUDY    76  73  91 CALM      30.05S
RUSSELLVILLE   CLOUDY    73  72  96 CALM      30.03S
CLINTON        FAIR      70  68  94 CALM      30.06R
$$

ARZ036-250500-
EAST ARKANSAS

CITY           SKY/WX    TMP DP  RH WIND       PRES   REMARKS
WEST MEMPHIS   FAIR      74  73  97 S3        30.04R
$$

ARZ050-053-066-070-073-250500-
SOUTHWEST ARKANSAS

CITY           SKY/WX    TMP DP  RH WIND       PRES   REMARKS
ARKADELPHIA    FAIR      73  72  96 CALM      30.04S FOG
CAMDEN         FAIR      75  68  78 SE6       30.03S
TEXARKANA      CLEAR     75  72  90 SE5       30.04R
EL DORADO      FAIR      73  73 100 CALM      30.05S
DE QUEEN       CLEAR     72  70  93 CALM      30.01S
$$

ARZ056-057-069-250500-
SOUTHEAST ARKANSAS

CITY           SKY/WX    TMP DP  RH WIND       PRES   REMARKS
PINE BLUFF     FAIR      74  70  87 SW5       30.04R
STUTTGART      FAIR      76  71  85 SE6       30.05R
MONTICELLO     LGT RAIN  72  70  93 CALM      30.03F

$$






USA.gov is the U.S. government's official web portal to all federal, state and local government web resources and services.